Tracking 27112 objects as of 28-Mar-2023
HD Live streaming from Space Station
objects crossing your sky now

ARIANE 42P DEB

Track ARIANE 42P DEB now!
10-day predictions


NORAD ID: 44510
Int'l Code: 1992-052H
Perigee: 1,296.5 km
Apogee: 1,414.8 km
Inclination: 66.1 °
Period: 112.7 minutes
Semi major axis: 7726 km
RCS: Unknown
Launch date: August 10, 1992
Source: France (FR)
Launch site: FRENCH GUIANA (FRGUI)

Note: This is SATELLITE DEBRIS
Your satellite tracking list
Your tracking list is empty




NASA's NSSDC Master Catalog

Two Line Element Set (TLE):
1 44510U 92052H   23086.68164829  .00001206  00000-0  56305-2 0  9995
2 44510  66.0584 219.7540 0076546 105.3574 255.5914 12.78249771168853
Source of the keplerian elements: AFSPC